TimeCDT,TemperatureF,Dew PointF,Humidity,Sea Level PressureIn,VisibilityMPH,Wind Direction,Wind SpeedMPH,Gust SpeedMPH,PrecipitationIn,Events,Conditions,WindDirDegrees,DateUTC
12:53 AM,70.0,66.0,87,29.88,10.0,ENE,6.9,-,0.01,,Overcast,70,2013-07-22 05:53:00
1:53 AM,69.1,66.0,90,29.86,10.0,ENE,4.6,-,0.01,,Mostly Cloudy,70,2013-07-22 06:53:00
2:53 AM,68.0,66.0,93,29.86,9.0,Calm,Calm,-,N/A,,Mostly Cloudy,0,2013-07-22 07:53:00
3:53 AM,69.1,66.0,90,29.84,10.0,East,5.8,-,N/A,,Scattered Clouds,80,2013-07-22 08:53:00
4:53 AM,69.1,66.0,90,29.84,10.0,ESE,3.5,-,N/A,,Partly Cloudy,110,2013-07-22 09:53:00
5:20 AM,69.8,66.2,88,29.86,10.0,ESE,10.4,-,N/A,,Scattered Clouds,120,2013-07-22 10:20:00
5:53 AM,69.1,66.0,90,29.86,10.0,SE,8.1,-,0.01,,Scattered Clouds,140,2013-07-22 10:53:00
6:53 AM,69.1,64.9,87,29.86,10.0,SE,11.5,-,N/A,,Overcast,140,2013-07-22 11:53:00
7:53 AM,69.1,66.0,90,29.86,10.0,ESE,6.9,-,N/A,,Clear,120,2013-07-22 12:53:00
8:15 AM,71.6,66.2,83,29.87,10.0,ESE,4.6,-,N/A,,Partly Cloudy,110,2013-07-22 13:15:00
8:53 AM,73.0,68.0,84,29.86,10.0,SE,8.1,-,N/A,,Partly Cloudy,130,2013-07-22 13:53:00
9:53 AM,75.0,66.9,76,29.86,10.0,SE,6.9,-,N/A,,Partly Cloudy,140,2013-07-22 14:53:00
10:53 AM,78.1,66.9,68,29.85,10.0,SSW,6.9,-,N/A,,Scattered Clouds,200,2013-07-22 15:53:00
11:23 AM,78.8,66.2,65,29.86,10.0,Variable,5.8,-,N/A,,Mostly Cloudy,0,2013-07-22 16:23:00
11:43 AM,80.6,66.2,61,29.86,10.0,Variable,6.9,-,N/A,,Scattered Clouds,0,2013-07-22 16:43:00
11:53 AM,79.0,66.0,64,29.84,10.0,SE,6.9,-,N/A,,Scattered Clouds,130,2013-07-22 16:53:00
12:10 PM,80.6,66.2,61,29.86,10.0,SSE,5.8,-,N/A,,Mostly Cloudy,160,2013-07-22 17:10:00
12:40 PM,80.6,66.2,61,29.85,10.0,South,8.1,-,N/A,,Scattered Clouds,190,2013-07-22 17:40:00
12:50 PM,80.6,66.2,61,29.85,10.0,SW,5.8,-,N/A,,Mostly Cloudy,230,2013-07-22 17:50:00
12:53 PM,81.0,66.9,62,29.84,10.0,South,6.9,-,N/A,,Mostly Cloudy,170,2013-07-22 17:53:00
1:53 PM,82.0,66.0,58,29.83,10.0,SSW,5.8,-,N/A,,Scattered Clouds,200,2013-07-22 18:53:00
2:53 PM,84.9,66.0,53,29.81,10.0,Calm,Calm,-,N/A,,Partly Cloudy,0,2013-07-22 19:53:00
3:53 PM,84.0,64.0,51,29.80,10.0,Calm,Calm,-,N/A,,Clear,0,2013-07-22 20:53:00
4:53 PM,84.9,64.9,51,29.78,10.0,SSW,5.8,-,N/A,,Clear,210,2013-07-22 21:53:00
5:53 PM,84.0,66.0,55,29.77,10.0,South,5.8,-,N/A,,Clear,170,2013-07-22 22:53:00
6:53 PM,82.9,66.0,56,29.77,10.0,SSW,6.9,-,N/A,,Clear,200,2013-07-22 23:53:00
7:53 PM,79.0,68.0,69,29.78,10.0,South,3.5,-,N/A,,Clear,180,2013-07-23 00:53:00
8:53 PM,77.0,68.0,74,29.78,10.0,SSW,3.5,-,N/A,,Partly Cloudy,210,2013-07-23 01:53:00
9:53 PM,75.0,68.0,79,29.78,10.0,SSW,5.8,-,N/A,,Clear,200,2013-07-23 02:53:00
10:53 PM,73.9,68.0,82,29.78,10.0,SSW,3.5,-,N/A,,Clear,200,2013-07-23 03:53:00
11:53 PM,73.9,69.1,85,29.80,10.0,SSW,5.8,-,N/A,,Clear,210,2013-07-23 04:53:00